DW0494 Weather Reports


Display with metric or nautical units.
time (UTC)temp
F
wind
direction
speed
MPH
gust
MPH
rain 1hr
in
rain 24hr
in
rain mn
in
humidity
%
barometer
mb
20260905113403 92 254 2.0 6.0 0.00 0.10 0.00 40 1019.8
20260905111903 91 215 2.0 7.0 0.00 0.10 0.00 39 1019.8
20260905111404 91 226 2.0 8.0 0.00 0.10 0.00 40 1019.8
20260905110903 90 230 2.0 8.0 0.00 0.10 0.00 40 1019.8
20260905110404 91 283 3.0 7.0 0.00 0.10 0.00 38 1019.9
20260905104904 90 278 2.0 8.0 0.00 0.10 0.00 41 1019.9
20260905104404 90 245 2.0 8.0 0.00 0.10 0.00 42 1020.1
20260905103904 90 227 3.0 8.0 0.00 0.10 0.00 41 1020.1
20260905103403 90 272 2.0 6.0 0.00 0.10 0.00 42 1020.1
20260905102903 90 215 2.0 6.0 0.00 0.10 0.00 41 1020.2
20260905102403 90 223 3.0 6.0 0.00 0.10 0.00 41 1020.2
20260905101910 90 243 2.0 8.0 0.00 0.10 0.00 42 1020.4
20260905101403 90 218 2.0 8.0 0.00 0.10 0.00 42 1020.4
20260905100903 90 221 1.0 8.0 0.00 0.10 0.00 44 1020.5
20260905100403 90 253 2.0 5.0 0.00 0.10 0.00 44 1020.6
20260905095903 90 219 2.0 6.0 0.00 0.10 0.00 43 1020.7
20260905095403 89 278 2.0 6.0 0.00 0.10 0.00 46 1020.7
20260905094903 88 240 2.0 8.0 0.00 0.10 0.00 46 1020.8
20260905094403 88 235 3.0 8.0 0.00 0.10 0.00 46 1020.8
20260905093904 88 240 2.0 6.0 0.00 0.10 0.00 46 1020.8
20260905093404 88 247 1.0 7.0 0.00 0.10 0.00 48 1020.8
20260905092903 88 219 3.0 7.0 0.00 0.10 0.00 48 1020.9
20260905092404 88 239 1.0 5.0 0.00 0.10 0.00 50 1020.8
20260905091403 88 292 2.0 7.0 0.00 0.10 0.00 50 1021.0
20260905090404 86 275 2.0 7.0 0.00 0.10 0.00 51 1021.0
20260905085403 87 281 1.0 6.0 0.00 0.10 0.00 53 1021.0
20260905084903 87 324 1.0 6.0 0.00 0.10 0.00 53 1021.0
20260905084403 87 206 1.0 5.0 0.00 0.10 0.00 52 1021.0
20260905083904 87 262 2.0 5.0 0.00 0.10 0.00 54 1021.0
20260905081904 86 282 1.0 5.0 0.00 0.10 0.00 58 1021.2
20260905080903 85 336 1.0 5.0 0.00 0.10 0.00 59 1021.2
20260905080404 84 25 2.0 5.0 0.00 0.10 0.00 59 1021.2
20260905075904 84 235 1.0 5.0 0.00 0.10 0.00 60 1021.2
20260905075404 70 0 0.0 0.0 0.00 0.10 0.00 75 1021.1
20260905074404 70 0 0.0 0.0 0.00 0.10 0.00 75 1021.1
20260905073403 70 0 0.0 0.0 0.00 0.10 0.00 75 1021.1
20260905072404 70 0 0.0 0.0 0.00 0.10 0.00 75 1021.1
20260905071903 70 0 0.0 0.0 0.00 0.10 0.00 75 1021.0
20260905071403 70 0 0.0 0.0 0.00 0.10 0.00 75 1021.1
20260905070903 70 0 0.0 0.0 0.00 0.10 0.00 75 1021.1
20260905070403 70 0 0.0 0.0 0.00 0.10 0.00 75 1021.0
20260905065903 70 0 0.0 0.0 0.00 0.10 0.00 75 1021.0
20260905064903 70 0 0.0 0.0 0.00 0.10 0.00 75 1021.0
20260905063905 70 0 0.0 0.0 0.00 0.10 0.00 75 1021.0
20260905063404 70 0 0.0 0.0 0.00 0.10 0.00 75 1021.0
20260905062903 70 0 0.0 0.0 0.00 0.10 0.00 75 1021.0
20260905062404 70 0 0.0 0.0 0.00 0.10 0.00 75 1021.0
20260905061904 70 0 0.0 0.0 0.00 0.10 0.00 75 1021.0
20260905061404 70 0 0.0 0.0 0.00 0.10 0.00 75 1021.0
20260905060903 70 0 0.0 0.0 0.00 0.10 0.00 75 1021.0
20260905055903 70 0 0.0 0.0 0.00 0.10 0.00 75 1020.9
20260905055404 70 0 0.0 0.0 0.00 0.10 0.00 75 1021.0
20260905054904 70 0 0.0 0.0 0.00 0.10 0.00 75 1020.9
20260905054404 70 0 0.0 0.0 0.00 0.10 0.00 75 1020.9
20260905053904 70 0 0.0 0.0 0.00 0.10 0.00 75 1020.9
20260905053404 70 0 0.0 0.0 0.00 0.10 0.00 75 1021.0
20260905052904 70 0 0.0 0.0 0.00 0.10 0.00 75 1020.9
20260905050904 70 0 0.0 0.0 0.00 0.10 0.00 75 1020.8
20260905050404 70 0 0.0 0.0 0.00 0.10 0.00 75 1020.8
20260905045904 70 0 0.0 0.0 0.00 0.10 0.00 75 1020.8
20260905045404 70 0 0.0 0.0 0.00 0.10 0.00 75 1020.8
20260905044904 70 0 0.0 0.0 0.00 0.10 0.00 75 1020.8
20260905044404 70 0 0.0 0.0 0.00 0.10 0.00 75 1020.8
20260905043904 70 0 0.0 0.0 0.00 0.10 0.00 75 1020.8
20260905043404 70 0 0.0 0.0 0.00 0.10 0.00 75 1020.7
20260905042904 70 0 0.0 0.0 0.00 0.10 0.00 75 1020.6
20260905042403 70 0 0.0 0.0 0.00 0.10 0.00 75 1020.5
20260905041904 70 0 0.0 0.0 0.00 0.10 0.00 75 1020.5
20260905041404 70 0 0.0 0.0 0.00 0.10 0.00 75 1020.5
20260905040903 70 0 0.0 0.0 0.00 0.10 0.00 75 1020.5
20260905035904 70 0 0.0 0.0 0.00 0.10 0.00 75 1020.3
20260905034904 70 0 0.0 0.0 0.00 0.10 0.00 75 1020.2
20260905033904 70 0 0.0 0.0 0.00 0.10 0.00 75 1020.3
20260905033404 70 0 0.0 0.0 0.00 0.10 0.00 75 1020.3
20260905032903 70 58 0.0 0.0 0.00 0.10 0.00 75 1020.2
20260905031903 70 62 0.0 1.0 0.00 0.10 0.00 75 1020.2
20260905030404 69 60 0.0 1.0 0.00 0.10 0.00 76 1020.0
20260905025904 70 60 0.0 1.0 0.00 0.10 0.00 75 1019.9
20260905025404 71 60 0.0 1.0 0.00 0.10 0.00 74 1019.9
20260905024904 72 60 0.0 1.0 0.00 0.10 0.00 72 1019.9
20260905024404 72 60 1.0 1.0 0.00 0.10 0.00 72 1019.9
20260905023903 72 60 1.0 1.0 0.00 0.10 0.00 72 1019.9
20260905022903 73 60 0.0 1.0 0.00 0.10 0.00 70 1019.8
20260905020903 72 65 2.0 2.0 0.00 0.10 0.00 70 1019.9
20260905015903 71 49 1.0 2.0 0.00 0.10 0.00 72 1019.9
20260905015404 71 43 0.0 1.0 0.00 0.10 0.00 72 1019.9
20260905014904 72 43 0.0 2.0 0.00 0.10 0.00 71 1019.8
20260905014404 72 43 1.0 2.0 0.00 0.10 0.00 70 1019.8
20260905012904 72 43 0.0 2.0 0.00 0.10 0.00 70 1019.8
20260905011903 72 41 0.0 2.0 0.00 0.10 0.00 69 1019.7
20260905011403 73 38 0.0 1.0 0.00 0.10 0.00 69 1019.8
20260905010903 73 38 0.0 1.0 0.00 0.10 0.00 69 1019.7
20260905010403 72 38 0.0 1.0 0.00 0.10 0.00 68 1019.7
20260905005904 72 38 0.0 1.0 0.00 0.10 0.00 67 1019.7
20260905004904 73 32 0.0 0.0 0.00 0.10 0.00 64 1019.6
20260905003904 74 32 0.0 1.0 0.00 0.10 0.00 62 1019.6
20260905003404 73 32 1.0 3.0 0.00 0.10 0.00 61 1019.6
20260905002903 74 55 0.0 3.0 0.00 0.10 0.00 60 1019.5
20260905002404 75 39 1.0 3.0 0.00 0.10 0.00 59 1019.5
20260905001903 74 57 1.0 2.0 0.00 0.15 0.00 59 1019.5
20260905001404 75 61 0.0 3.0 0.00 0.15 0.00 58 1019.5
20260905000403 75 55 1.0 2.0 0.00 0.15 0.00 57 1019.4
20260904234903 76 39 0.0 3.0 0.00 0.15 0.00 55 1019.3
20260904234403 75 44 2.0 3.0 0.00 0.15 0.00 56 1019.4
20260904233904 75 79 1.0 5.0 0.00 0.15 0.00 55 1019.3
20260904233404 75 47 0.0 5.0 0.00 0.15 0.00 56 1019.3
20260904232904 75 48 2.0 5.0 0.00 0.15 0.00 55 1019.4
20260904232404 74 54 2.0 3.0 0.00 0.15 0.00 55 1019.4
20260904231904 75 55 2.0 3.0 0.00 0.15 0.00 56 1019.3
20260904230904 75 53 2.0 3.0 0.00 0.15 0.00 54 1019.3
20260904230404 75 47 2.0 3.0 0.00 0.15 0.00 55 1019.3
20260904225903 75 37 0.0 3.0 0.00 0.15 0.00 55 1019.3
20260904225404 75 34 1.0 3.0 0.00 0.15 0.00 55 1019.3
20260904224903 75 44 0.0 2.0 0.00 0.15 0.00 53 1019.3
20260904224403 76 38 1.0 2.0 0.00 0.15 0.00 53 1019.3
20260904223903 77 41 1.0 3.0 0.00 0.15 0.00 52 1019.4
20260904222904 77 42 2.0 7.0 0.00 0.15 0.00 52 1019.4
20260904222403 76 46 1.0 3.0 0.00 0.15 0.00 52 1019.3
20260904221903 76 51 0.0 3.0 0.00 0.15 0.00 53 1019.4
20260904221403 76 60 1.0 3.0 0.00 0.15 0.00 52 1019.3
20260904220403 77 83 1.0 3.0 0.00 0.15 0.00 51 1019.4
20260904215403 76 46 1.0 3.0 0.00 0.15 0.00 53 1019.4
20260904214903 76 60 0.0 1.0 0.00 0.15 0.00 51 1019.5
20260904214403 76 58 0.0 1.0 0.00 0.15 0.00 51 1019.5
20260904213903 76 58 0.0 1.0 0.00 0.15 0.00 52 1019.5
20260904212904 76 52 0.0 1.0 0.00 0.15 0.00 53 1019.5
20260904211904 77 52 0.0 1.0 0.00 0.15 0.00 50 1019.5
20260904211403 77 25 0.0 1.0 0.00 0.15 0.00 49 1019.5
20260904210904 77 344 0.0 1.0 0.00 0.15 0.00 49 1019.5
20260904210403 77 346 0.0 1.0 0.00 0.15 0.00 50 1019.5
20260904205904 77 309 0.0 2.0 0.00 0.15 0.00 50 1019.5
20260904205404 77 4 0.0 2.0 0.00 0.15 0.00 50 1019.6
20260904204904 77 40 0.0 2.0 0.00 0.15 0.00 50 1019.6
20260904204404 78 44 0.0 2.0 0.00 0.15 0.00 49 1019.5
20260904203904 79 72 1.0 2.0 0.00 0.15 0.00 48 1019.6
20260904203411 79 73 1.0 2.0 0.00 0.15 0.00 47 1019.5
20260904202904 79 73 1.0 2.0 0.00 0.15 0.00 65 1019.6